Probability
0 0 0 0 0 0 0 0 0 0 0 0 0 0 0 0 0 0 0 0 0 0 0 0 0 0 0 0 0 0 0 0 0 0 0 0 0 0 0 0 0 0 0
0 0 0 0 0 0 0 0 0 0 0 0 0 0 0 0 0 0 0 0 0 0 0 0 0 0 0 0 0 0 0 0 0 0 0 0 0 0 0 0 0 0 0
0 0 0 0 0 0 0 0 0 0 0 0 0 0 0 0 0 0 0 0 0 0 0 0 0 0 0 0 0 0 0 0 0 0 0 0 0 0 0 0 0 0 0
0 0 0 0 0 0 0 0 0 0 0 0 0 0 0 0 0 0 0 0 0 0 0 0 0 0 0 0 0 0 0 0 0 0 0 0 0 0 0 0 0 0 0
0 0 0 0 0 0 0 0 0 0 0 0 0 0 0 0 0 0 0 0 0 0 0 0 0 0 0 0 0 0 0 0 0 0 0 0 0 0 0 0 0 0 0
0 0 0 0 0 0 0 0 0 0 0 0 0 0 0 0 0 0 0 0 0 0 0 0 0 0 0 0 0 0 0 0 0 0 0 0 0 0 0 0 0 0 0
0 0 0 0 0 0 0 0 0 0 0 0 0 0 0 0 0 0 0 0 0 0 0 0 0 0 0 0 0 0 0 0 0 0 0 0 0 0 0 0 0 0 0
0 0 0 0 0 0 0 0 0 0 0 0 0 0 0 0 0 0 0 0 0 0 0 0 0 0 0 0 0 0 0 0 0 0 0 0 0 0 0 0 0 0 0
0 0 0 0 0 0 0 0 0 0 0 0 0 0 0 0 0 0 0 0 0 0 0 0 0 0 0 0 0 0 0 0 0 0 0 0 0 0 0 0 0 0 0
0 0 0 0 0 0 0 0 0 0 0 0 0 0 0 0 0 0 0 0 0 0 0 0 0 0 0 0 0 0 0 0 0 0 0 0 0 0 0 0 0 0 0
0 0 0 0 0 0 0 0 0 0 0 0 0 0 0 0 0 0 0 0 0 0 0 0 0 0 0 0 0 0 0 0 0 0 0 0 0 0 0 0 0 0 0
0 0 0 0 0 0 0 0 0 0 0 0 0 0 0 0 0 0 0 0 0 0 0 0 0 0 0 0 0 0 0 0 0 0 0 0 0 0 0 0 0 0 0
0 0 0 0 0 0 0 0 0 0 0 0 0 0 0 0 0 0 0 0 0 0 0 0 0 0 0 0 0 0 0 0 0 0 0 0 0 0 0 0 0 0 0
0 0 0 0 0 0 0 0 0 0 0 0 0 0 0 0 0 0 0 0 0 0 0 0 0 0 0 0 0 0 0 0 0 0 0 0 0 0 0 0 0 0 0
0 0 0 0 0 0 0 0 0 0 0 0 0 0 0 0 0 0 0 0 0 0 0 0 0 0 0 0 0 0 0 0 0 0 0 0 0 0 0 0 0 0 0
0 0 0 0 0 0 0 0 0 0 0 0 0 0 0 0 0 0 0 0 0 0 0 0 0 0 0 0 0 0 0 0 0 0 0 0 0 0 0 0 0 0 0
0 0 0 0 0 0 0 0 0 0 0 0 0 0 0 0 0 0 0 0 0 0 0 0 0 0 0 0 0 0 0 0 0 0 0 0 0 0 0 0 0 0 0
0 0 0 0 0 0 0 0 0 0 0 0 0 0 0 0 0 0 0 0 0 0 0 0 0 0 0 0 0 0 0 0 0 0 0 0 0 0 0 0 0 0 0
0 0 0 0 0 0 0 0 0 0 0 0 0 0 0 0 0 0 0 0 0 0 0 0 0 0 0 0 0 0 0 0 0 0 0 0 0 0 0 0 0 0 0
0 0 0 0 0 0 0 0 0 0 0 0 0 0 0 0 0 0 0 0 0 0 0 0 0 0 0 0 0 0 0 0 0 0 0 0 0 0 0 0 0 0 0
0 0 0 0 0 0 0 0 0 0 0 0 0 0 0 0 0 0 0 0 0 0 0 0 0 0 0 0 0 0 0 0 0 0 0 0 0 0 0 0 0 0 0
0 0 0 0 0 0 0 0 0 0 0 0 0 0 0 0 0 0 0 0 0 0 0 0 0 0 0 0 0 0 0 0 0 0 0 0 0 0 0 0 0 0 0
0 0 0 0 0 0 0 0 0 0 0 0 0 0 0 0 0 0 0 0 0 0 0 0 0 0 0 0 0 0 0 0 0 0 0 0 0 0 0 0 0 0 0
0 0 0 0 0 0 0 0 0 0 0 0 0 0 0 0 0 0 0 0 0 0 0 0 0 0 0 0 0 0 0 0 0 0 0 0 0 0 0 0 0 0 0
0 0 0 0 0 0 0 0 0 0 0 0 0 0 0 0 0 0 0 0 0 0 0 0 0 0 0 0 0 0 0 0 0 0 0 0 0 0 0 0 0 0 0
0 0 0 0 0 0 0 0 0 0 0 0 0 0 0 0 0 0 0 0 0 0 0 0 0 0 0 0 0 0 0 0 0 0 0 0 0 0 0 0 0 0 0
Wind_Speed
8 9 10 9 9 9 10 12 12 11 9 8 8 7 6 5 4 4 6 6 5 5 4 3 3 2 2 1 1 1 2 2 2 2 4 4 3 1 1 1 1 1 1
4 7 9 9 9 9 9 11 12 11 10 8 7 6 6 4 4 4 5 6 6 5 4 4 3 3 2 2 2 2 1 1 1 1 2 4 5 3 2 1 1 1 2
4 6 8 8 8 8 9 9 11 11 10 9 6 6 5 4 3 4 4 5 6 6 5 4 4 4 3 2 2 2 2 0 1 1 2 1 2 4 4 3 1 2 2
3 5 7 8 8 8 8 8 9 10 10 10 9 10 7 6 5 5 4 5 6 6 5 5 5 4 3 3 3 2 2 2 0 1 0 1 2 0 4 4 3 3 3
3 4 7 8 8 7 7 7 8 9 9 10 10 10 7 5 5 6 7 6 5 6 6 5 5 4 3 4 3 2 2 1 2 1 0 1 1 2 2 5 5 4 3
4 4 6 7 7 7 6 6 7 8 9 10 10 10 9 8 8 8 8 6 4 4 6 6 5 4 4 4 4 3 2 1 1 1 1 2 2 2 2 4 5 5 4
6 5 7 7 8 8 7 6 7 8 9 10 10 9 9 9 10 9 8 7 5 4 6 5 5 4 4 4 4 3 2 2 2 2 2 2 2 2 2 3 4 5 4
6 6 7 7 8 8 8 7 8 8 9 9 9 8 9 7 6 7 7 7 6 5 7 6 6 6 5 5 4 3 3 3 3 3 3 2 3 2 3 3 3 5 5
6 7 7 7 8 9 9 8 9 9 9 9 8 8 8 7 7 8 7 6 6 6 8 7 6 6 5 5 4 3 4 3 3 4 4 3 3 3 3 3 3 4 7
7 7 7 7 8 8 8 8 8 9 9 9 8 6 7 8 8 7 7 7 7 7 8 7 6 6 5 5 4 3 3 4 3 3 4 4 3 4 4 4 4 5 6
7 7 7 7 7 8 8 8 8 8 8 8 7 7 7 7 7 7 7 7 7 8 8 7 7 6 5 5 4 4 4 4 4 4 5 6 5 4 4 4 4 5 5
6 6 7 7 7 8 7 7 7 7 8 7 7 7 7 7 7 7 7 8 8 7 7 7 6 6 6 5 5 5 5 5 5 5 5 6 5 5 5 4 5 6 6
6 5 6 7 7 7 7 7 7 7 7 7 7 7 7 7 7 7 7 7 8 7 7 6 6 6 5 5 5 4 4 4 5 5 5 6 5 6 5 6 6 5 6
6 6 5 6 6 7 7 7 7 7 8 7 7 8 8 7 7 7 7 7 7 7 7 6 6 5 5 5 4 4 4 4 4 5 6 6 6 7 7 7 7 6 6
6 6 6 5 6 7 6 7 7 7 7 7 7 7 7 6 6 6 7 6 6 6 6 6 5 5 4 5 5 4 5 5 6 6 7 8 10 13 11 9 6 5 5
7 7 6 6 6 7 7 6 7 7 7 7 6 6 6 6 6 7 6 6 6 5 5 6 5 5 5 8 10 7 5 5 6 7 7 8 10 14 19 20 18 13 9
6 7 7 6 6 6 7 7 7 7 7 6 6 6 6 6 6 6 6 6 6 5 5 5 5 5 6 10 11 11 6 5 6 7 7 7 8 12 7 12 17 15 18
7 6 6 6 5 6 6 6 7 7 7 6 6 6 6 6 6 6 6 5 4 5 5 5 5 5 6 10 11 11 6 5 6 7 7 8 8 8 9 7 7 7 8
6 6 6 7 6 6 7 7 7 7 6 6 6 6 6 6 6 5 5 4 4 4 4 4 5 5 6 9 10 10 4 5 7 7 8 8 8 14 18 10 8 8 7
7 7 7 7 7 6 7 8 7 7 6 5 5 6 6 6 6 5 4 3 3 4 3 3 4 4 5 8 10 10 4 5 6 6 7 12 14 17 18 9 7 9 8
8 8 8 7 6 6 7 7 7 6 5 5 5 5 5 5 4 4 3 3 2 2 2 3 4 4 5 7 10 11 5 5 5 5 5 6 16 19 20 17 9 13 14
8 8 8 7 6 6 7 7 6 6 6 6 5 5 4 4 3 3 3 2 2 2 3 3 4 3 4 6 9 12 12 10 6 6 5 7 17 19 20 16 16 22 18
7 7 8 8 6 5 6 7 6 6 6 6 5 4 4 3 3 3 2 2 1 2 2 2 3 4 3 5 11 13 14 15 9 6 13 17 20 19 13 16 21 17 7
7 7 8 8 6 5 6 7 6 6 6 6 4 4 3 3 2 2 2 2 2 2 2 3 4 4 4 4 4 4 6 10 9 7 12 18 19 15 15 14 11 6 5
6 7 7 8 7 7 7 6 6 6 6 5 4 3 2 2 1 1 2 2 3 4 4 4 4 4 5 7 12 8 5 5 7 9 5 5 5 5 5 5 5 4 4
7 7 8 8 7 7 7 6 5 6 6 4 3 2 2 1 1 0 1 3 4 7 9 9 8 7 11 16 17 17 18 19 19 13 6 6 6 6 6 5 4 3 3
Wind_Direction
201 176 169 160 160 164 164 165 167 173 168 167 171 169 171 165 161 155 158 158 159 155 148 141 145 135 139 145 101 67 32 26 26 3 328 312 291 117 96 22 14 342 354
201 167 157 155 161 167 168 166 168 172 172 170 169 165 160 160 154 149 155 159 155 150 151 156 151 141 132 113 96 90 53 2 58 71 4 343 342 352 345 328 314 330 352
200 164 155 159 162 170 172 172 171 169 169 161 155 148 137 131 136 152 158 161 153 147 148 156 146 140 139 140 131 119 119 57 352 94 116 80 296 317 313 311 318 333 325
186 168 162 163 168 168 164 167 164 163 165 161 164 164 163 164 168 161 159 159 154 151 153 151 141 142 139 140 141 126 130 126 238 347 122 189 188 229 309 312 314 326 310
166 169 165 162 158 147 149 158 158 161 165 166 168 168 169 166 154 153 158 162 158 154 153 149 143 147 143 140 136 131 141 148 171 180 220 294 313 218 224 284 302 312 294
152 152 142 136 131 130 139 152 158 162 166 168 172 178 176 169 160 161 163 162 156 153 155 151 151 153 146 145 148 154 165 177 186 197 200 195 214 239 239 263 288 293 288
146 148 141 143 138 140 150 160 162 164 167 170 178 184 179 173 168 165 164 160 158 160 165 156 160 157 153 152 152 162 181 190 197 213 223 218 224 229 236 260 280 287 291
144 152 155 154 150 155 164 173 173 171 171 176 182 181 176 171 167 164 161 165 165 165 161 163 165 160 157 157 160 173 192 193 204 223 225 228 239 236 230 236 266 292 290
147 154 157 160 158 165 174 181 178 172 174 177 178 178 175 168 163 161 159 159 155 154 156 161 164 162 160 165 169 187 200 197 210 219 227 231 236 235 234 231 220 243 282
149 157 163 167 163 167 175 181 178 173 173 175 179 176 170 163 158 156 158 155 150 148 154 163 166 165 168 174 180 193 204 202 218 216 224 237 238 239 236 233 233 226 248
159 162 166 167 162 162 170 177 175 168 171 174 171 165 162 156 153 155 157 153 149 153 161 167 167 171 177 182 188 200 206 214 228 229 230 240 240 242 243 240 240 241 243
154 158 161 161 161 167 172 174 172 168 170 168 163 162 157 153 155 158 158 153 154 160 164 166 169 177 182 187 194 207 210 217 230 238 241 248 251 250 248 246 247 248 247
155 157 160 165 167 169 172 172 172 169 166 164 162 161 160 160 163 163 159 157 159 162 163 166 175 183 186 193 204 209 216 224 233 239 246 252 254 260 259 256 256 257 264
162 163 169 173 169 169 172 171 172 166 164 163 164 166 168 167 167 163 160 161 160 162 168 175 179 182 187 197 208 215 226 239 248 249 250 252 252 256 260 262 260 261 267
164 170 174 175 168 167 171 168 167 163 160 162 166 169 164 161 161 159 159 159 161 167 169 172 180 184 187 201 206 215 225 237 251 255 254 254 256 259 264 266 259 256 262
172 170 172 170 168 167 167 163 161 158 154 159 163 159 157 158 159 158 157 158 164 167 170 179 186 196 204 216 221 219 220 230 242 254 257 259 262 267 273 276 277 274 271
170 169 172 171 164 160 158 159 156 148 149 153 155 157 156 156 156 155 158 165 171 172 180 188 194 206 218 224 232 236 233 236 247 255 261 267 267 275 265 274 279 280 280
162 162 158 151 144 139 138 137 136 138 143 148 153 152 149 151 152 158 168 173 173 179 187 197 204 212 227 233 240 245 239 242 252 257 261 265 267 266 272 261 260 256 264
145 143 140 134 128 128 129 126 128 132 141 150 151 150 149 153 159 168 175 176 176 187 193 198 206 218 235 239 244 247 233 244 253 257 261 267 266 276 284 280 271 270 266
116 118 117 115 118 122 123 126 132 135 144 145 143 142 147 154 163 170 174 175 176 186 189 205 216 225 238 248 250 250 234 249 258 260 263 273 281 286 289 282 272 276 275
115 116 115 115 121 123 123 126 127 135 135 129 129 134 142 150 157 161 163 161 162 170 199 225 237 238 245 258 259 259 248 243 256 261 262 267 287 291 292 291 280 280 287
122 121 115 112 114 119 123 124 128 129 123 124 127 132 136 139 143 146 152 154 161 190 224 240 254 253 256 260 267 271 271 273 267 266 263 270 288 290 292 293 289 292 296
129 121 121 118 115 117 124 128 130 126 123 123 125 126 125 126 134 141 147 156 175 204 235 245 258 267 263 270 277 282 285 288 285 276 284 290 294 296 295 292 293 294 289
130 126 127 126 124 117 111 120 124 123 122 124 124 123 124 129 129 130 151 174 202 223 241 252 261 268 271 271 274 275 284 288 290 290 289 293 294 293 290 291 293 281 264
131 132 134 132 129 119 113 116 120 121 120 119 119 117 120 132 136 159 196 206 216 219 237 242 244 263 273 272 285 292 285 280 276 292 283 277 280 272 272 273 272 266 272
134 132 129 127 125 120 117 115 116 118 119 119 118 119 121 119 131 210 302 282 271 275 272 272 274 275 281 295 298 300 300 301 300 300 287 283 279 280 281 281 278 269 266